• In Russia
  • List of Countries
  • For 7 days
  • Water Temperature
  • Satellite Maps
  • Weather Map
  • Weather Widgets
  • user-avatar
    Login

    Hourly Weather Canberra

    Today, 23 March, Thursday

    Time Temperature Precipitation Wind Pressure Humidity
    00:00 +18°C° 0 mm 2 mps 710 mmHg 93%
    01:00 +17°C° 0 mm 2 mps 710 mmHg 93%
    02:00 +17°C° 0 mm 2 mps 710 mmHg 94%
    03:00 +16°C° 0 mm 2 mps 710 mmHg 95%
    04:00 +15°C° 0 mm 1 mps 710 mmHg 96%
    05:00 +15°C° 0 mm 1 mps 711 mmHg 95%
    06:00 +16°C° 0 mm 2 mps 711 mmHg 94%
    07:00 +16°C° 0 mm 2 mps 711 mmHg 92%
    08:00 +17°C° 0 mm 2 mps 711 mmHg 86%
    09:00 +18°C° 0 mm 2 mps 712 mmHg 79%
    10:00 +19°C° 0 mm 3 mps 712 mmHg 72%
    11:00 +19°C° 0.2 mm 3 mps 712 mmHg 75%
    12:00 +19°C° 0.2 mm 2 mps 712 mmHg 77%
    13:00 +19°C° 0.2 mm 2 mps 712 mmHg 79%
    14:00 +18°C° 0.8 mm 2 mps 711 mmHg 82%
    15:00 +18°C° 0.8 mm 2 mps 711 mmHg 84%
    16:00 +18°C° 0.8 mm 2 mps 711 mmHg 86%
    17:00 +17°C° 0.7 mm 2 mps 711 mmHg 89%
    18:00 +17°C° 0.7 mm 2 mps 711 mmHg 91%
    19:00 +16°C° 0.7 mm 2 mps 712 mmHg 94%
    20:00 +16°C° 0 mm 2 mps 712 mmHg 95%
    21:00 +15°C° 0 mm 2 mps 712 mmHg 95%
    22:00 +15°C° 0 mm 2 mps 712 mmHg 96%
    23:00 +15°C° 0 mm 2 mps 712 mmHg 96%

    Tomorrow, 24 March, Friday

    Time Temperature Precipitation Wind Pressure Humidity
    00:00 +15°C° 0 mm 2 mps 712 mmHg 95%
    01:00 +15°C° 0 mm 2 mps 712 mmHg 95%
    02:00 +14°C° 0 mm 2 mps 712 mmHg 95%
    03:00 +14°C° 0 mm 2 mps 712 mmHg 95%
    04:00 +14°C° 0 mm 1 mps 712 mmHg 95%
    05:00 +14°C° 0 mm 1 mps 712 mmHg 95%
    06:00 +14°C° 0 mm 1 mps 712 mmHg 94%
    07:00 +14°C° 0 mm 1 mps 712 mmHg 93%
    08:00 +16°C° 0 mm 2 mps 712 mmHg 86%
    09:00 +17°C° 0 mm 2 mps 713 mmHg 79%
    10:00 +19°C° 0 mm 2 mps 713 mmHg 72%
    11:00 +20°C° 0 mm 2 mps 713 mmHg 67%
    12:00 +21°C° 0 mm 2 mps 713 mmHg 62%
    13:00 +23°C° 0 mm 2 mps 712 mmHg 58%
    14:00 +22°C° 0 mm 3 mps 712 mmHg 59%
    15:00 +22°C° 0 mm 3 mps 712 mmHg 61%
    16:00 +21°C° 0 mm 3 mps 711 mmHg 63%
    17:00 +20°C° 0 mm 2 mps 711 mmHg 71%
    18:00 +18°C° 0 mm 2 mps 711 mmHg 80%
    19:00 +17°C° 0 mm 2 mps 711 mmHg 88%
    20:00 +16°C° 0 mm 2 mps 711 mmHg 88%
    21:00 +16°C° 0 mm 2 mps 712 mmHg 89%
    22:00 +16°C° 0 mm 2 mps 712 mmHg 89%
    23:00 +16°C° 0 mm 2 mps 711 mmHg 90%

    Day after tomorrow, 25 March, Saturday

    Time Temperature Precipitation Wind Pressure Humidity
    00:00 +16°C° 0 mm 1 mps 711 mmHg 91%
    01:00 +16°C° 0 mm 1 mps 711 mmHg 92%
    02:00 +15°C° 0 mm 1 mps 711 mmHg 93%
    03:00 +15°C° 0 mm 1 mps 710 mmHg 94%
    04:00 +15°C° 0 mm 1 mps 710 mmHg 95%
    05:00 +15°C° 0.1 mm 1 mps 710 mmHg 94%
    06:00 +15°C° 0.1 mm 1 mps 710 mmHg 94%
    07:00 +16°C° 0.1 mm 1 mps 710 mmHg 94%
    08:00 +18°C° 0.4 mm 1 mps 710 mmHg 91%
    09:00 +18°C° 0.4 mm 1 mps 710 mmHg 89%
    10:00 +19°C° 0.4 mm 1 mps 710 mmHg 86%
    11:00 +20°C° 0.3 mm 1 mps 710 mmHg 85%
    12:00 +20°C° 0.3 mm 2 mps 710 mmHg 84%
    13:00 +20°C° 0.3 mm 2 mps 709 mmHg 83%
    14:00 +21°C° 0.1 mm 2 mps 709 mmHg 82%
    15:00 +21°C° 0.1 mm 2 mps 709 mmHg 82%
    16:00 +21°C° 0.1 mm 2 mps 708 mmHg 81%
    17:00 +20°C° 0 mm 2 mps 708 mmHg 86%
    18:00 +20°C° 0 mm 1 mps 708 mmHg 91%
    19:00 +19°C° 0 mm 1 mps 708 mmHg 97%
    20:00 +18°C° 0 mm 1 mps 708 mmHg 97%
    21:00 +18°C° 0 mm 1 mps 709 mmHg 97%
    22:00 +16°C° 0 mm 1 mps 709 mmHg 97%
    23:00 +16°C° 0 mm 1 mps 709 mmHg 97%

    26 March, Sunday

    Time Temperature Precipitation Wind Pressure Humidity
    00:00 +16°C° 0 mm 1 mps 708 mmHg 97%
    01:00 +16°C° 0 mm 1 mps 708 mmHg 96%
    02:00 +16°C° 0 mm 1 mps 708 mmHg 96%
    03:00 +15°C° 0 mm 1 mps 708 mmHg 95%
    04:00 +15°C° 0 mm 1 mps 708 mmHg 95%
    05:00 +16°C° 0 mm 1 mps 708 mmHg 93%
    06:00 +16°C° 0 mm 1 mps 709 mmHg 92%
    07:00 +16°C° 0 mm 0 mps 709 mmHg 90%
    08:00 +19°C° 0 mm 0 mps 710 mmHg 77%
    09:00 +22°C° 0 mm 0 mps 711 mmHg 64%
    10:00 +26°C° 0 mm 0 mps 711 mmHg 51%
    11:00 +29°C° 0 mm 1 mps 711 mmHg 46%
    12:00 +30°C° 0 mm 1 mps 710 mmHg 40%
    13:00 +31°C° 0 mm 1 mps 710 mmHg 35%
    14:00 +31°C° 0 mm 1 mps 710 mmHg 38%
    15:00 +30°C° 0 mm 2 mps 709 mmHg 40%
    16:00 +29°C° 0 mm 2 mps 709 mmHg 43%
    17:00 +27°C° 0 mm 2 mps 709 mmHg 54%
    18:00 +24°C° 0 mm 1 mps 709 mmHg 65%
    19:00 +21°C° 0 mm 1 mps 709 mmHg 76%
    20:00 +21°C° 0 mm 1 mps 709 mmHg 80%
    21:00 +20°C° 0 mm 1 mps 709 mmHg 83%
    22:00 +19°C° 0 mm 1 mps 710 mmHg 87%
    23:00 +19°C° 0 mm 1 mps 709 mmHg 89%

    27 March, Monday

    Time Temperature Precipitation Wind Pressure Humidity
    00:00 +18°C° 0 mm 1 mps 709 mmHg 91%
    01:00 +18°C° 0 mm 1 mps 709 mmHg 92%
    02:00 +16°C° 0 mm 0 mps 708 mmHg 93%
    03:00 +15°C° 0 mm 0 mps 708 mmHg 94%
    04:00 +15°C° 0 mm 0 mps 708 mmHg 95%
    05:00 +16°C° 0 mm 0 mps 708 mmHg 93%
    06:00 +19°C° 0 mm 1 mps 709 mmHg 91%
    07:00 +19°C° 0 mm 1 mps 709 mmHg 89%
    08:00 +22°C° 0 mm 1 mps 709 mmHg 75%
    09:00 +25°C° 0 mm 2 mps 709 mmHg 62%
    10:00 +28°C° 0 mm 3 mps 710 mmHg 48%
    11:00 +30°C° 0 mm 3 mps 709 mmHg 45%
    12:00 +32°C° 0 mm 4 mps 709 mmHg 42%
    13:00 +33°C° 0 mm 4 mps 708 mmHg 39%
    14:00 +33°C° 0 mm 4 mps 708 mmHg 43%
    15:00 +32°C° 0 mm 4 mps 707 mmHg 47%
    16:00 +30°C° 0 mm 4 mps 706 mmHg 51%
    17:00 +29°C° 0 mm 3 mps 706 mmHg 59%
    18:00 +27°C° 0 mm 2 mps 706 mmHg 66%
    19:00 +25°C° 0 mm 2 mps 705 mmHg 74%
    20:00 +24°C° 0.2 mm 2 mps 706 mmHg 76%
    21:00 +24°C° 0.2 mm 2 mps 706 mmHg 78%
    22:00 +24°C° 0.2 mm 2 mps 706 mmHg 80%
    23:00 +23°C° 0.3 mm 1 mps 706 mmHg 83%

    28 March, Tuesday

    Time Temperature Precipitation Wind Pressure Humidity
    00:00 +23°C° 0.3 mm 1 mps 706 mmHg 85%
    01:00 +22°C° 0.3 mm 1 mps 706 mmHg 88%
    02:00 +21°C° 0.1 mm 1 mps 706 mmHg 90%
    03:00 +21°C° 0.1 mm 1 mps 706 mmHg 93%
    04:00 +20°C° 0.1 mm 1 mps 706 mmHg 95%
    05:00 +20°C° 0 mm 1 mps 707 mmHg 95%
    06:00 +20°C° 0 mm 1 mps 707 mmHg 94%
    07:00 +20°C° 0 mm 1 mps 707 mmHg 93%
    08:00 +22°C° 0 mm 1 mps 708 mmHg 82%
    09:00 +24°C° 0 mm 2 mps 708 mmHg 71%
    10:00 +26°C° 0 mm 2 mps 709 mmHg 60%
    11:00 +28°C° 0 mm 3 mps 708 mmHg 54%
    12:00 +29°C° 0 mm 3 mps 708 mmHg 47%
    13:00 +30°C° 0 mm 4 mps 708 mmHg 41%
    14:00 +29°C° 0 mm 3 mps 708 mmHg 40%
    15:00 +29°C° 0 mm 3 mps 708 mmHg 39%
    16:00 +28°C° 0 mm 3 mps 708 mmHg 38%
    17:00 +25°C° 0 mm 2 mps 708 mmHg 49%
    18:00 +21°C° 0 mm 2 mps 708 mmHg 60%
    19:00 +19°C° 0 mm 1 mps 708 mmHg 71%
    20:00 +18°C° 0 mm 1 mps 709 mmHg 76%
    21:00 +16°C° 0 mm 1 mps 709 mmHg 80%
    22:00 +16°C° 0 mm 1 mps 709 mmHg 85%
    23:00 +16°C° 0.1 mm 1 mps 709 mmHg 88%
    Show more